Location: Unspecified
(50.7693°N, 0.0000°E)
Time: 16:19:14
(UTC+00:00)

Transit 2A - Pass Details

Date: 02 July 2019
Orbit: 594 x 965 km, 66.7° (Epoch: 17 July)

Event Time Altitude Azimuth Distance (km) Brightness Sun altitude
Rises 05:09:24 0° 322° (NW) 3,499 9.3 9.6°
Reaches altitude 10° 05:12:10 10° 329° (NNW) 2,502 8.6 10.0°
Maximum altitude 05:17:36 41° 39° (NE) 1,149 7.9 10.7°
Drops below altitude 10° 05:22:29 10° 110° (ESE) 2,252 9.3 11.5°
Sets 05:24:52 0° 118° (ESE) 3,112 9.8 11.8°
